Ainsworth, NE

4:20 PM CDT on October 23, 2019 (GMT -0500)
Ainsworth Municipal

Weather History for KANW - August, 2019

Change the Weather History Date:

Sunday, August 4, 2019

  Actual Average Record
Temperature  
Mean Temperature 77 °F -  
Max Temperature 91 °F 83 °F 96 °F (2001)
Min Temperature 63 °F 59 °F 47 °F (2017)
Cooling Degree Days 12    
Growing Degree Days 27 (Base 50)    
Moisture  
Dew Point 66 °F    
Average Humidity 79    
Maximum Humidity 100    
Minimum Humidity 37    
Precipitation  
Precipitation 0.24 in - - ()
Sea Level Pressure  
Sea Level Pressure 30.06 in    
Wind  
Wind Speed 6 mph (South)    
Max Wind Speed 24 mph    
Max Gust Speed 37 mph    
Visibility 10 miles    
Events Rain , Thunderstorm    
Averages and records for this station are not official NWS values.
T = Trace of Precipitation, MM = Missing Value Source: NWS Daily Summary

Daily Weather History Graph

Daily Weather History Graph

Search for Another Location

Airport or City:

Astronomy

Aug. 04, 2019 Rise Set
Actual Time 6:34 AM CDT 8:56 PM CDT
Civil Twilight 6:03 AM CDT 9:28 PM CDT
Nautical Twilight 5:23 AM CDT 10:07 PM CDT
Astronomical Twilight 4:40 AM CDT 10:50 PM CDT
Moon 10:47 AM CDT (8/4) 11:31 PM CDT (8/4)
Length of Visible Light 15h 24m
Length of Day
14h 21m
Waxing Crescent, 18% of the Moon is Illuminated
Aug 4
Waxing Crescent
Aug 7
First Quarter
Aug 15
Full
Aug 23
Last Quarter
Aug 30
New

Hourly Weather History & Observations

Time (CDT) Temp. Heat Index Dew Point Humidity Pressure Visibility Wind Dir Wind Speed Gust Speed Precip Events Conditions
12:15 AM 66.4 °F - 66.4 °F 100% 30.10 in 10.0 mi SE 4.6 mph - N/A   Clear
12:35 AM 66.7 °F - 66.7 °F 100% 30.10 in 10.0 mi SE 5.8 mph - N/A   Clear
12:55 AM 66.7 °F - 66.7 °F 100% 30.10 in 10.0 mi SE 4.6 mph - N/A   Clear
1:15 AM 66.7 °F - 66.7 °F 100% 30.10 in 10.0 mi SSE 3.5 mph - N/A   Clear
1:35 AM 65.3 °F - 65.3 °F 100% 30.09 in 10.0 mi South 3.5 mph - N/A   Clear
1:55 AM 64.8 °F - 64.8 °F 100% 30.09 in 10.0 mi South 4.6 mph - N/A   Clear
2:15 AM 65.3 °F - 65.3 °F 100% 30.09 in 10.0 mi SSE 4.6 mph - N/A   Clear
2:35 AM 65.3 °F - 65.3 °F 100% 30.09 in 10.0 mi South 3.5 mph - N/A   Clear
2:55 AM 63.9 °F - 63.9 °F 100% 30.08 in 10.0 mi South 5.8 mph - N/A   Clear
3:15 AM 64.4 °F - 64.4 °F 100% 30.08 in 10.0 mi South 5.8 mph - N/A   Clear
3:35 AM 63.9 °F - 63.9 °F 100% 30.08 in 10.0 mi South 6.9 mph - N/A   Clear
3:55 AM 64.6 °F - 64.6 °F 100% 30.08 in 10.0 mi South 5.8 mph - N/A   Clear
4:15 AM 64.2 °F - 64.2 °F 100% 30.08 in 10.0 mi South 5.8 mph - N/A   Clear
4:35 AM 63.9 °F - 63.9 °F 100% 30.08 in 10.0 mi South 4.6 mph - N/A   Clear
4:55 AM 64.2 °F - 64.2 °F 100% 30.07 in 10.0 mi South 6.9 mph - N/A   Clear
5:15 AM 64.6 °F - 64.6 °F 100% 30.07 in 10.0 mi South 5.8 mph - N/A   Clear
5:35 AM 64.4 °F - 64.4 °F 100% 30.08 in 10.0 mi South 5.8 mph - N/A   Clear
5:55 AM 64.2 °F - 64.2 °F 100% 30.07 in 10.0 mi South 5.8 mph - N/A   Clear
6:15 AM 64.8 °F - 64.8 °F 100% 30.08 in 10.0 mi South 5.8 mph - N/A   Clear
6:35 AM 64.4 °F - 64.4 °F 100% 30.08 in 7.0 mi South 5.8 mph - N/A   Clear
6:55 AM 63.9 °F - 63.9 °F 100% 30.08 in 7.0 mi South 5.8 mph - N/A   Clear
7:15 AM 64.2 °F - 64.2 °F 100% 30.08 in 5.0 mi South 4.6 mph - N/A   Clear
7:35 AM 65.3 °F - 65.3 °F 100% 30.08 in 7.0 mi South 3.5 mph - N/A   Clear
7:55 AM 66.9 °F - 66.9 °F 100% 30.08 in 7.0 mi South 5.8 mph - N/A   Clear
8:15 AM 68.9 °F - 68.9 °F 100% 30.08 in 10.0 mi South 8.1 mph - N/A   Clear
8:35 AM 70.2 °F - 70.2 °F 100% 30.07 in 10.0 mi SSW 8.1 mph - N/A   Clear
8:55 AM 72.1 °F - 70.0 °F 93% 30.07 in 10.0 mi SSW 8.1 mph - N/A   Clear
9:15 AM 73.9 °F - 69.4 °F 86% 30.07 in 10.0 mi SSW 9.2 mph - N/A   Clear
9:35 AM 75.4 °F - 68.4 °F 79% 30.07 in 10.0 mi SW 8.1 mph - N/A   Clear
9:55 AM 77.5 °F - 66.9 °F 70% 30.07 in 10.0 mi SW 10.4 mph - N/A   Clear
10:15 AM 78.8 °F - 66.4 °F 66% 30.07 in 10.0 mi SSW 9.2 mph - N/A   Clear
10:35 AM 80.1 °F 82.1 °F 66.2 °F 62% 30.08 in 10.0 mi SSW 6.9 mph - N/A   Clear
10:55 AM 81.1 °F 83.5 °F 67.1 °F 62% 30.08 in 10.0 mi SSW 5.8 mph - N/A   Clear
11:15 AM 82.6 °F 85.3 °F 67.3 °F 60% 30.08 in 10.0 mi SW 5.8 mph - N/A   Clear
11:35 AM 83.8 °F 86.7 °F 67.6 °F 58% 30.07 in 10.0 mi SW 6.9 mph - N/A   Clear
11:55 AM 84.6 °F 87.4 °F 67.1 °F 56% 30.07 in 10.0 mi SSW 3.5 mph - N/A   Clear
12:15 PM 85.8 °F 89.1 °F 68.0 °F 55% 30.07 in 10.0 mi SSW 5.8 mph - N/A   Clear
12:35 PM 87.1 °F 90.2 °F 67.5 °F 52% 30.07 in 10.0 mi SSW 6.9 mph - N/A   Clear
12:55 PM 87.6 °F 90.4 °F 67.1 °F 50% 30.06 in 10.0 mi South 4.6 mph - N/A   Clear
1:15 PM 87.8 °F 89.1 °F 64.2 °F 45% 30.06 in 10.0 mi Calm Calm - N/A   Clear
1:35 PM 88.5 °F 90.1 °F 64.6 °F 45% 30.05 in 10.0 mi Calm Calm - N/A   Clear
1:55 PM 89.4 °F 91.9 °F 66.0 °F 46% 30.04 in 10.0 mi Calm Calm - N/A   Clear
2:15 PM 90.0 °F 92.0 °F 65.5 °F 44% 30.04 in 10.0 mi SSW 8.1 mph - N/A   Clear
2:35 PM 90.9 °F 92.7 °F 65.1 °F 42% 30.04 in 10.0 mi South 5.8 mph - N/A   Clear
2:55 PM 89.8 °F 90.4 °F 62.6 °F 40% 30.04 in 10.0 mi Calm Calm - N/A   Clear
3:15 PM 91.4 °F 92.8 °F 63.9 °F 40% 30.04 in 10.0 mi ESE 5.8 mph - N/A   Clear
3:35 PM 91.4 °F 91.7 °F 62.1 °F 37% 30.03 in 10.0 mi Calm Calm - N/A   Clear
3:55 PM 90.7 °F 91.3 °F 62.6 °F 39% 30.03 in 10.0 mi East 5.8 mph - N/A   Clear
4:15 PM 87.4 °F 90.1 °F 66.9 °F 50% 30.01 in 10.0 mi ESE 4.6 mph - N/A   Clear
4:35 PM 88.3 °F 91.2 °F 66.9 °F 49% 29.99 in 10.0 mi ESE 8.1 mph - N/A   Clear
4:55 PM 89.6 °F 91.5 °F 65.1 °F 44% 29.99 in 10.0 mi SE 11.5 mph - N/A   Clear
5:35 PM 86.2 °F 87.3 °F 63.7 °F 47% 30.01 in 10.0 mi SE 5.8 mph - N/A   Clear
5:55 PM 84.0 °F 85.8 °F 65.1 °F 53% 30.01 in 10.0 mi SE 4.6 mph - N/A   Clear
6:15 PM 83.3 °F 85.7 °F 66.6 °F 57% 30.03 in 10.0 mi South 6.9 mph - N/A   Clear
6:35 PM 81.7 °F 84.5 °F 68.2 °F 63% 30.03 in 10.0 mi SSE 5.8 mph - N/A   Clear
6:55 PM 81.3 °F 84.1 °F 68.2 °F 64% 30.07 in 10.0 mi Calm Calm - N/A Thunderstorm Thunderstorm
7:15 PM 79.5 °F - 68.4 °F 69% 30.08 in 10.0 mi NW 24.2 mph 32.2 mph N/A Thunderstorm Thunderstorm
7:35 PM 69.6 °F - 68.4 °F 96% 30.10 in 7.0 mi NW 20.7 mph 31.1 mph 0.02 in Rain , Thunderstorm Rain
7:55 PM 66.4 °F - 66.4 °F 100% 30.16 in 2.5 mi NNW 21.9 mph 36.8 mph 0.14 in Rain , Thunderstorm Heavy Thunderstorms and Rain
8:15 PM 65.7 °F - 65.7 °F 100% 30.14 in 5.0 mi East 9.2 mph - 0.05 in Rain , Thunderstorm Thunderstorms and Rain
8:35 PM 66.6 °F - 66.6 °F 100% 30.08 in 5.0 mi SSE 24.2 mph - 0.09 in Rain , Thunderstorm Thunderstorms and Rain
8:55 PM 66.6 °F - 66.6 °F 100% 30.05 in 10.0 mi SSE 20.7 mph 31.1 mph 0.10 in Rain , Thunderstorm Light Thunderstorms and Rain
9:15 PM 68.0 °F - 63.7 °F 86% 30.05 in 10.0 mi South 17.3 mph - N/A   Clear
9:35 PM 69.3 °F - 62.2 °F 78% 30.04 in 10.0 mi South 13.8 mph - N/A   Clear
9:55 PM 67.8 °F - 63.0 °F 84% 30.05 in 10.0 mi South 12.7 mph - N/A   Clear
10:15 PM 67.5 °F - 63.7 °F 88% 30.03 in 10.0 mi South 15.0 mph - N/A   Clear
10:35 PM 66.9 °F - 64.4 °F 92% 30.03 in 10.0 mi South 13.8 mph - N/A   Clear
10:55 PM 67.3 °F - 64.9 °F 92% 30.03 in 10.0 mi South 11.5 mph - N/A   Clear
11:15 PM 67.3 °F - 64.6 °F 91% 30.04 in 10.0 mi SSW 11.5 mph - N/A   Clear
11:35 PM 67.1 °F - 64.4 °F 91% 30.03 in 10.0 mi SSW 10.4 mph - N/A   Clear
11:55 PM 66.6 °F - 64.4 °F 93% 30.03 in 10.0 mi SSW 9.2 mph - N/A   Clear